Middletown, PA

12:27 PM EST on December 07, 2019 (GMT -0500)
Harrisburg International

Weather History for KMDT - November, 2019

Change the Weather History Date:

Tuesday, November 12, 2019

  Actual Average Record
Temperature  
Mean Temperature 43 °F 46 °F  
Max Temperature 59 °F 55 °F 73 °F (1964)
Min Temperature 27 °F 36 °F 22 °F (1957)
Degree Days  
Heating Degree Days 22 19  
Month to date heating degree days 257 210  
Since 1 July heating degree days 461 622  
Cooling Degree Days 0 0  
Month to date cooling degree days 0 0  
Year to date cooling degree days 1446 1002  
Moisture  
Dew Point 26 °F    
Average Humidity 59    
Maximum Humidity 89    
Minimum Humidity 31    
Precipitation  
Precipitation 0.22 in 0.10 in 2.36 in (1925)
Month to date precipitation 0.63 1.21  
Year to date precipitation 43.02 35.49  
Snow  
Snow 0.00 in 0.00 in 3.00 in (1968)
Month to date snowfall 0.0 0.1  
Since 1 July snowfall 0.0 0.1  
Since 1 September snowfall 0.0 0.1  
Snow Depth 0.00 in    
Sea Level Pressure  
Sea Level Pressure 29.97 in    
Wind  
Wind Speed 10 mph ()    
Max Wind Speed 23 mph    
Max Gust Speed 32 mph    
Visibility 9.5 miles    
Events Rain    
T = Trace of Precipitation, MM = Missing Value Source: Averaged Metar Reports

Daily Weather History Graph

Daily Weather History Graph

Search for Another Location

Airport or City:

Astronomy

Nov. 12, 2019 Rise Set
Actual Time 6:48 AM EST 4:52 PM EST
Civil Twilight 6:19 AM EST 5:21 PM EST
Nautical Twilight 5:47 AM EST 5:54 PM EST
Astronomical Twilight 5:15 AM EST 6:26 PM EST
Moon 5:18 PM EST (11/12) 6:38 AM EST (11/12)
Length of Visible Light 11h 01m
Length of Day
10h 04m
Full, 100% of the Moon is Illuminated
Nov 12
Full
Nov 19
Last Quarter
Nov 26
New
Dec 4
First Quarter
Dec 12
Full

Hourly Weather History & Observations

Time (EST) Temp. Windchill Dew Point Humidity Pressure Visibility Wind Dir Wind Speed Gust Speed Precip Events Conditions
12:56 AM 59.0 °F - 39.9 °F 49% 29.72 in 10.0 mi SW 12.7 mph 20.7 mph N/A   Overcast
1:56 AM 57.0 °F - 41.0 °F 55% 29.71 in 10.0 mi WSW 12.7 mph - 0.00 in Rain Light Rain
2:56 AM 51.1 °F - 46.0 °F 83% 29.73 in 10.0 mi Calm Calm - 0.03 in Rain Light Rain
3:56 AM 50.0 °F - 46.9 °F 89% 29.74 in 8.0 mi NW 4.6 mph - 0.02 in Rain Light Rain
4:56 AM 50.0 °F - 46.9 °F 89% 29.75 in 6.0 mi NW 5.8 mph - 0.07 in Rain Rain
5:26 AM 50.0 °F - 46.0 °F 86% 29.77 in 5.0 mi WNW 9.2 mph - 0.04 in Rain Rain
5:56 AM 46.0 °F 39.6 °F 41.0 °F 83% 29.81 in 8.0 mi NNW 15.0 mph 23.0 mph 0.09 in Rain Rain
6:56 AM 43.0 °F 36.0 °F 35.1 °F 74% 29.86 in 10.0 mi NNW 13.8 mph 27.6 mph 0.01 in   Overcast
7:56 AM 39.9 °F 31.1 °F 30.9 °F 70% 29.92 in 10.0 mi NNW 17.3 mph 24.2 mph 0.00 in   Overcast
8:35 AM 37.9 °F 29.6 °F 30.0 °F 73% 29.94 in 10.0 mi NNW 13.8 mph 19.6 mph N/A   Overcast
8:56 AM 37.9 °F 29.6 °F 30.0 °F 73% 29.96 in 10.0 mi NW 13.8 mph - N/A   Overcast
9:30 AM 37.0 °F 28.1 °F 27.0 °F 67% 29.97 in 10.0 mi NW 15.0 mph - N/A   Overcast
9:56 AM 37.0 °F 27.7 °F 26.1 °F 65% 29.99 in 10.0 mi NW 16.1 mph - N/A   Overcast
10:56 AM 37.0 °F 29.3 °F 25.0 °F 62% 30.02 in 10.0 mi NNW 11.5 mph - N/A   Mostly Cloudy
11:56 AM 36.0 °F 26.7 °F 23.0 °F 59% 30.02 in 10.0 mi NNW 15.0 mph - N/A   Mostly Cloudy
12:56 PM 37.0 °F 28.9 °F 21.9 °F 54% 30.02 in 10.0 mi NW 12.7 mph - N/A   Mostly Cloudy
1:56 PM 37.0 °F 28.5 °F 19.9 °F 50% 30.01 in 10.0 mi NNW 13.8 mph 21.9 mph N/A   Mostly Cloudy
2:56 PM 37.0 °F 29.3 °F 19.9 °F 50% 30.01 in 10.0 mi NNW 11.5 mph - N/A   Mostly Cloudy
3:56 PM 37.9 °F 30.5 °F 14.0 °F 38% 30.03 in 10.0 mi NNW 11.5 mph - N/A   Mostly Cloudy
4:56 PM 35.1 °F 26.9 °F 14.0 °F 42% 30.07 in 10.0 mi NNW 11.5 mph - N/A   Mostly Cloudy
5:56 PM 34.0 °F 25.5 °F 12.9 °F 42% 30.11 in 10.0 mi NNW 11.5 mph - N/A   Scattered Clouds
6:56 PM 33.1 °F 24.9 °F 12.9 °F 43% 30.15 in 10.0 mi NNW 10.4 mph - N/A   Scattered Clouds
7:56 PM 30.9 °F 22.2 °F 10.0 °F 42% 30.19 in 10.0 mi North 10.4 mph - N/A   Scattered Clouds
8:56 PM 30.0 °F 21.1 °F 9.0 °F 41% 30.22 in 10.0 mi North 10.4 mph - N/A   Partly Cloudy
9:56 PM 28.9 °F 19.2 °F 1.9 °F 32% 30.25 in 10.0 mi NNW 11.5 mph - N/A   Partly Cloudy
10:56 PM 28.0 °F 15.7 °F 1.9 °F 33% 30.26 in 10.0 mi NW 17.3 mph - N/A   Clear